Hollywood, FL

8:03 AM EDT on October 15, 2019 (GMT -0400)
North Perry

Weather History for KHWO - August, 2019

Change the Weather History Date:

Monday, August 5, 2019

  Actual Average (WUND) Record (WUND)
Temperature  
Mean Temperature 83 °F -  
Max Temperature 91 °F - - (-1)
Min Temperature 77 °F - - (-1)
Cooling Degree Days 18    
Growing Degree Days 33 (Base 50)    
Moisture  
Dew Point 74 °F    
Average Humidity 81    
Maximum Humidity 90    
Minimum Humidity 59    
Precipitation  
Precipitation 0.05 in - - ()
Sea Level Pressure  
Sea Level Pressure 30.04 in    
Wind  
Wind Speed 4 mph (NW)    
Max Wind Speed 12 mph    
Max Gust Speed 18 mph    
Visibility 10 miles    
Events Rain , Thunderstorm    
Averages and records for this station are not official NWS values.
T = Trace of Precipitation, MM = Missing Value Source: NWS Daily Summary

Daily Weather History Graph

Daily Weather History Graph

Search for Another Location

Airport or City:

Astronomy

Aug. 05, 2019 Rise Set
Actual Time 6:48 AM EDT 8:04 PM EDT
Civil Twilight 6:24 AM EDT 8:29 PM EDT
Nautical Twilight 5:54 AM EDT 8:58 PM EDT
Astronomical Twilight 5:24 AM EDT 9:28 PM EDT
Moon 11:35 AM EDT (8/5) 11:47 PM EDT (8/5)
Length of Visible Light 14h 05m
Length of Day
13h 16m
Waxing Crescent, 28% of the Moon is Illuminated
Aug 5
Waxing Crescent
Aug 7
First Quarter
Aug 15
Full
Aug 23
Last Quarter
Aug 30
New

Hourly Weather History & Observations

Time (EDT) Temp. Heat Index Dew Point Humidity Pressure Visibility Wind Dir Wind Speed Gust Speed Precip Events Conditions
12:53 AM 80.1 °F 85.4 °F 75.9 °F 87% 30.05 in - SSE 4.6 mph - N/A   Clear
1:53 AM 80.1 °F 85.4 °F 75.9 °F 87% 30.02 in - ESE 3.5 mph - N/A   Clear
2:53 AM 81.0 °F 87.3 °F 75.9 °F 85% 30.00 in - Calm Calm - N/A   Clear
3:53 AM 80.1 °F 85.4 °F 75.9 °F 87% 29.99 in - Calm Calm - N/A   Clear
4:53 AM 79.0 °F - 75.9 °F 90% 30.01 in - NNW 3.5 mph - N/A   Clear
5:53 AM 79.0 °F - 75.9 °F 90% 30.01 in - North 3.5 mph - N/A   Clear
6:53 AM 79.0 °F - 75.9 °F 90% 30.02 in - Calm Calm - N/A   Clear
7:53 AM 80.1 °F 85.8 °F 77.0 °F 90% 30.03 in - Calm Calm - N/A   Clear
8:53 AM 82.9 °F 92.8 °F 78.1 °F 85% 30.04 in - West 3.5 mph - N/A   Clear
9:53 AM 87.1 °F 97.3 °F 75.9 °F 69% 30.05 in - WSW 4.6 mph - N/A   Clear
10:53 AM 88.0 °F 98.5 °F 75.9 °F 67% 30.05 in 10.0 mi WSW 4.6 mph - N/A   Clear
11:53 AM 89.1 °F 97.0 °F 73.0 °F 59% 30.06 in 10.0 mi West 5.8 mph - N/A   Clear
12:11 PM 89.1 °F 97.0 °F 73.0 °F 59% 30.05 in - WNW 5.8 mph - N/A Thunderstorm Thunderstorm
12:51 PM 89.6 °F 99.8 °F 75.2 °F 62% 30.05 in 10.0 mi SE 10.4 mph - N/A Thunderstorm Thunderstorm
12:53 PM 88.0 °F 97.5 °F 75.0 °F 65% 30.05 in 10.0 mi SE 11.5 mph 18.4 mph N/A Thunderstorm Thunderstorm
2:18 PM 78.1 °F - 71.1 °F 79% 30.07 in 10.0 mi NNW 5.8 mph - 0.00 in Thunderstorm Scattered Clouds
2:25 PM 78.1 °F - 72.0 °F 81% 30.07 in 10.0 mi NNW 5.8 mph - 0.00 in   Scattered Clouds
2:41 PM 77.0 °F - 71.1 °F 82% 30.06 in 10.0 mi North 5.8 mph - 0.01 in Rain , Thunderstorm Light Thunderstorms and Rain
2:53 PM 77.0 °F - 72.0 °F 84% 30.07 in 10.0 mi North 8.1 mph - 0.01 in Rain Light Rain
3:08 PM 77.0 °F - 71.1 °F 82% 30.07 in 10.0 mi NNW 4.6 mph - 0.01 in Rain , Thunderstorm Light Rain
3:23 PM 77.0 °F - 71.1 °F 82% 30.06 in 10.0 mi NW 5.8 mph - 0.01 in Rain Light Rain
3:53 PM 77.0 °F - 71.1 °F 82% 30.05 in 10.0 mi North 5.8 mph - 0.02 in Rain Light Rain
4:53 PM 77.0 °F - 72.0 °F 84% 30.04 in 10.0 mi North 6.9 mph - 0.02 in Rain Light Rain
5:53 PM 79.0 °F - 73.0 °F 82% 30.03 in 10.0 mi Calm Calm - 0.00 in   Partly Cloudy
6:53 PM 80.1 °F 83.8 °F 72.0 °F 76% 30.03 in 10.0 mi Calm Calm - N/A   Clear
7:53 PM 79.0 °F - 73.9 °F 84% 30.04 in 10.0 mi WNW 3.5 mph - N/A   Clear
8:53 PM 79.0 °F - 75.0 °F 88% 30.06 in 10.0 mi Calm Calm - N/A   Clear
9:53 PM 79.0 °F - 75.0 °F 88% 30.07 in 10.0 mi Calm Calm - 0.00 in   Clear
10:53 PM 78.1 °F - 75.0 °F 90% 30.07 in 10.0 mi Calm Calm - N/A   Clear
11:53 PM 78.1 °F - 75.0 °F 90% 30.06 in 10.0 mi Calm Calm - N/A   Clear